�������ċp�F�_�X�g���j�^�v���󋵏��
Date,Time,�ċp�F�_�X�g���j�^(cps),����,����(m/s)
2022/01/14,00:00,4.5,��,9.3
2022/01/14,00:10,4.5,���k��,8.5
2022/01/14,00:20,4.5,���k��,9.8
2022/01/14,00:30,4.2,��,8.2
2022/01/14,00:40,4.5,��,6.7
2022/01/14,00:50,4.3,���k��,6.9
2022/01/14,01:00,4.4,���k��,11.7
2022/01/14,01:10,4.5,���k��,10.2
2022/01/14,01:20,4.5,���k��,11.3
2022/01/14,01:30,4.3,���k��,9.9
2022/01/14,01:40,4.4,�k��,8.8
2022/01/14,01:50,4.2,���k��,6.3
2022/01/14,02:00,4.4,��,6.3
2022/01/14,02:10,4.4,���쐼,4.4
2022/01/14,02:20,4.5,���쐼,6.8
2022/01/14,02:30,4.5,���쐼,6.4
2022/01/14,02:40,4.4,���쐼,7.1
2022/01/14,02:50,4.5,���쐼,5.8
2022/01/14,03:00,4.4,��,7.3
2022/01/14,03:10,4.6,��,8.2
2022/01/14,03:20,4.2,��,5.7
2022/01/14,03:30,4.3,��,7.0
2022/01/14,03:40,4.3,���쐼,8.2
2022/01/14,03:50,4.5,��,6.7
2022/01/14,04:00,4.4,���쐼,6.2
2022/01/14,04:10,4.4,��,7.1
2022/01/14,04:20,4.4,��,6.6
2022/01/14,04:30,4.5,��,7.8
2022/01/14,04:40,4.3,��,6.4
2022/01/14,04:50,4.2,��,5.1
2022/01/14,05:00,4.4,��,4.4
2022/01/14,05:10,4.6,��,4.1
2022/01/14,05:20,4.4,��,3.9
2022/01/14,05:30,4.4,���k��,4.3
2022/01/14,05:40,4.5,��,5.6
2022/01/14,05:50,4.4,���k��,4.2
2022/01/14,06:00,4.3,���k��,5.5
2022/01/14,06:10,4.4,���k��,6.1
2022/01/14,06:20,4.6,���k��,5.0
2022/01/14,06:30,4.3,��,5.2
2022/01/14,06:40,4.5,��,9.8
2022/01/14,06:50,4.3,��,6.9
2022/01/14,07:00,4.5,��,7.4
2022/01/14,07:10,4.3,��,9.8
2022/01/14,07:20,4.5,��,9.0
2022/01/14,07:30,4.4,���k��,8.0
2022/01/14,07:40,4.3,���k��,7.0
2022/01/14,07:50,4.3,��,5.5
2022/01/14,08:00,4.2,��,4.2
2022/01/14,08:10,4.5,��,5.0
2022/01/14,08:20,4.4,���k��,6.5
2022/01/14,08:30,4.4,���k��,8.4
2022/01/14,08:40,4.4,��,9.1
2022/01/14,08:50,4.5,��,9.0
2022/01/14,09:00,4.3,���k��,9.2
2022/01/14,09:10,4.4,���k��,8.0
2022/01/14,09:20,4.5,��,8.5
2022/01/14,09:30,4.2,���k��,6.9
2022/01/14,09:40,4.4,���k��,6.1
2022/01/14,09:50,4.4,���k��,8.4
2022/01/14,10:00,4.5,��,7.0
2022/01/14,10:10,4.4,��,5.7
2022/01/14,10:20,4.5,���k��,8.8
2022/01/14,10:30,3.9,���k��,8.9
2022/01/14,10:40,4.4,���k��,8.5
2022/01/14,10:50,4.3,���k��,7.9
2022/01/14,11:00,4.5,���k��,8.0
2022/01/14,11:10,4.5,���k��,8.6
2022/01/14,11:20,4.4,���k��,5.9
2022/01/14,11:30,4.3,���k��,13.0
2022/01/14,11:40,4.3,���k��,8.7
2022/01/14,11:50,4.5,���k��,7.5
2022/01/14,12:00,4.5,���k��,9.9
2022/01/14,12:10,4.5,���k��,9.2
2022/01/14,12:20,4.4,���k��,9.2
2022/01/14,12:30,4.6,���k��,8.8
2022/01/14,12:40,4.6,���k��,10.0
2022/01/14,12:50,4.4,���k��,10.2
2022/01/14,13:00,4.4,���k��,6.7
2022/01/14,13:10,4.5,��,5.4
2022/01/14,13:20,4.4,��,8.5
2022/01/14,13:30,4.4,��,6.5
2022/01/14,13:40,4.4,���k��,7.3
2022/01/14,13:50,4.5,��,7.8
2022/01/14,14:00,4.5,���k��,6.2
2022/01/14,14:10,4.5,��,9.1
2022/01/14,14:20,4.4,���k��,10.9
2022/01/14,14:30,4.2,���k��,10.2
2022/01/14,14:40,4.3,���k��,9.0
2022/01/14,14:50,4.4,���k��,10.2
2022/01/14,15:00,4.2,���k��,8.9
2022/01/14,15:10,4.5,���k��,8.0
2022/01/14,15:20,4.5,���k��,7.7
2022/01/14,15:30,4.4,��,6.5
2022/01/14,15:40,4.5,���k��,10.4
2022/01/14,15:50,4.5,���k��,8.7
2022/01/14,16:00,4.3,���k��,11.1
2022/01/14,16:10,4.5,���k��,7.3
2022/01/14,16:20,4.5,���k��,8.3
2022/01/14,16:30,4.5,���k��,7.7
2022/01/14,16:40,4.4,�k��,7.3
2022/01/14,16:50,4.4,���k��,5.0
2022/01/14,17:00,4.3,��,3.9
2022/01/14,17:10,4.4,���k��,6.3
2022/01/14,17:20,4.4,���k��,5.2
2022/01/14,17:30,4.4,���k��,4.5
2022/01/14,17:40,4.4,�k,2.9
2022/01/14,17:50,4.3,�k,3.2
2022/01/14,18:00,4.6,�k��,3.2
2022/01/14,18:10,4.4,���k��,4.8
2022/01/14,18:20,4.6,�k��,6.2
2022/01/14,18:30,4.6,�k��,3.2
2022/01/14,18:40,4.2,�k��,4.7
2022/01/14,18:50,4.4,�k��,4.3
2022/01/14,19:00,4.2,�k�k��,4.5
2022/01/14,19:10,4.6,�k�k��,2.8
2022/01/14,19:20,4.4,�k�k��,1.5
2022/01/14,19:30,4.3,���k��,2.9
2022/01/14,19:40,4.6,���k��,3.0
2022/01/14,19:50,4.2,�k�k��,2.0
2022/01/14,20:00,4.3,�k�k��,2.3
2022/01/14,20:10,4.5,�k,1.9
2022/01/14,20:20,4.3,�k,2.6
2022/01/14,20:30,4.3,�k�k��,3.5
2022/01/14,20:40,4.5,�k,3.7
2022/01/14,20:50,4.3,�k�k��,4.1
2022/01/14,21:00,4.4,�k�k��,4.2
2022/01/14,21:10,4.4,�k,3.1
2022/01/14,21:20,4.3,��,0.8
2022/01/14,21:30,4.3,��,0.9
2022/01/14,21:40,4.4,�k��,2.3
2022/01/14,21:50,4.3,��,1.2
2022/01/14,22:00,4.4,�k��,5.1
2022/01/14,22:10,4.3,�k��,5.0
2022/01/14,22:20,4.5,�k��,3.5
2022/01/14,22:30,4.3,�k��,4.3
2022/01/14,22:40,4.4,�k�k��,7.1
2022/01/14,22:50,4.6,�k��,4.9
2022/01/14,23:00,4.4,�k��,4.5
2022/01/14,23:10,4.2,���k��,8.8
2022/01/14,23:20,4.2,���k��,12.7
2022/01/14,23:30,4.4,��,11.3
2022/01/14,23:40,4.6,���k��,16.0
2022/01/14,23:50,4.3,���k��,14.4
